Wind_Speed
32 32 32 32 32 32 31 32 31 31 31 31 31 31 32 32 32 32 32 32 31 31 31 31 31 31 30 30 29 29 28 28 29 29 29 29 29 30 30 30 30 30 31
34 34 34 34 33 33 33 32 32 32 32 31 31 32 32 32 33 33 32 32 33 33 33 32 32 31 32 31 31 31 31 30 30 31 31 31 31 31 31 31 31 31 32
35 35 34 34 35 34 34 33 33 33 33 32 32 32 32 33 33 34 34 34 34 34 34 33 33 32 32 32 32 33 33 33 33 33 34 33 33 33 33 33 33 33 33
34 34 34 34 35 34 34 34 34 34 34 34 33 34 34 34 35 35 35 35 35 35 34 35 35 34 34 34 34 35 35 35 36 36 36 36 36 35 35 35 35 34 34
35 35 34 35 34 35 35 35 35 35 35 35 36 36 35 35 36 36 36 36 35 35 35 35 35 36 37 38 37 37 37 37 37 37 36 37 37 37 36 36 36 36 36
34 34 33 34 34 35 35 35 35 36 36 36 37 37 36 36 36 36 36 36 35 36 36 36 36 37 38 38 38 39 39 39 39 38 37 37 37 37 37 37 37 37 37
32 33 33 34 34 34 35 36 36 36 37 37 37 37 38 37 37 36 37 38 38 38 38 37 37 37 38 39 40 40 40 41 40 39 39 39 38 39 39 39 38 38 38
30 31 32 32 32 33 34 34 35 36 36 37 37 38 38 38 38 38 38 38 38 38 38 38 39 39 39 40 40 40 40 40 40 40 40 40 40 40 40 40 39 39 39
30 31 32 33 33 34 35 36 35 35 36 36 36 36 37 38 37 37 38 38 38 38 38 39 39 40 40 40 41 41 40 40 40 40 40 41 41 42 42 41 41 42 41
31 31 32 34 33 34 35 35 36 36 37 38 38 38 38 38 39 38 37 38 39 39 39 39 40 41 40 41 41 41 40 41 42 41 41 41 42 42 42 43 42 42 41
31 32 33 34 34 34 35 36 37 37 37 38 38 38 39 39 38 37 37 38 39 40 40 41 41 42 41 41 41 41 41 41 41 41 42 42 42 42 43 43 43 42 41
32 33 34 35 35 35 35 35 36 36 37 37 37 38 39 39 39 38 38 38 39 40 41 41 42 43 42 42 42 42 42 42 42 42 42 42 42 42 42 43 43 43 43
35 35 35 36 35 35 35 35 36 36 36 36 36 37 38 38 39 39 40 40 40 40 40 41 42 42 42 42 43 43 43 42 42 42 42 42 42 42 42 42 42 43 42
34 35 36 36 36 36 36 35 35 35 35 36 36 37 37 38 39 40 41 41 41 41 41 41 42 42 42 43 42 43 43 42 42 42 42 42 42 42 41 41 41 41 40
34 34 35 36 37 36 36 35 35 35 36 36 36 37 38 39 40 40 41 41 41 40 40 41 42 42 42 42 42 42 42 42 43 43 42 42 42 42 40 40 40 40 39
36 36 36 36 37 37 37 37 37 37 38 37 37 38 38 39 39 40 40 41 41 41 41 41 41 42 42 42 42 42 43 43 43 43 43 42 42 41 40 40 40 39 39
39 38 38 39 39 39 39 39 39 39 39 39 39 39 39 39 39 40 40 41 42 42 42 42 42 42 42 42 42 42 42 42 42 42 42 41 41 41 41 41 40 39 38
42 42 42 41 41 41 41 40 40 40 40 40 40 39 39 39 39 40 40 40 41 42 42 41 41 41 41 41 41 42 41 41 42 41 41 41 41 41 41 41 40 39 38
43 43 43 43 43 43 43 42 42 42 41 40 40 40 40 39 39 40 40 41 41 42 42 42 41 41 41 41 41 41 41 41 41 41 41 41 41 41 41 40 40 39 38
42 42 43 43 43 43 43 43 43 43 42 41 40 40 40 40 40 40 40 41 41 41 41 42 42 42 42 42 42 41 41 41 40 41 41 41 41 41 41 40 40 39 39
42 43 43 43 43 43 43 43 43 42 42 41 41 40 40 40 40 40 40 40 41 41 42 42 43 43 43 43 43 42 42 42 41 41 41 41 41 41 40 40 40 40 40
44 44 44 44 44 43 43 43 43 42 42 42 42 41 41 40 40 40 40 41 42 42 43 43 42 42 42 42 42 42 42 42 42 41 41 41 41 40 40 40 40 41 41
46 46 46 45 45 45 44 44 44 44 43 43 43 42 42 42 42 42 42 42 42 43 43 43 42 41 42 42 42 42 42 42 42 42 42 41 41 41 41 40 40 40 40
47 47 47 47 47 46 46 45 45 45 44 44 44 44 44 44 44 43 43 43 43 43 43 42 42 42 42 42 43 43 43 43 42 42 42 41 41 41 41 40 40 40 40
48 48 48 48 48 48 47 47 47 46 46 45 45 45 44 44 44 44 43 42 42 42 43 43 42 42 42 43 43 43 44 44 44 43 43 42 41 41 41 40 40 40 41
49 49 49 49 49 49 49 49 48 47 46 45 45 45 45 45 45 44 43 43 42 42 42 42 42 42 43 43 43 44 44 44 44 43 42 42 42 41 40 40 40 40 41
Wind_Direction
254 256 258 260 261 263 264 264 264 265 267 267 268 268 268 268 267 269 270 272 273 273 274 275 276 277 277 279 280 282 284 286 289 291 292 292 292 293 293 293 294 295 295
255 257 258 259 260 261 263 264 264 265 266 268 268 269 268 269 268 268 269 271 272 273 273 273 275 276 276 277 279 280 282 285 288 290 292 292 293 293 292 292 293 294 295
256 257 258 260 260 260 261 263 264 264 265 266 268 268 267 268 269 268 268 270 271 271 272 272 272 273 275 277 278 280 282 283 286 289 290 291 291 292 291 291 292 292 294
256 257 258 260 261 262 262 263 264 265 266 265 266 267 268 268 269 269 269 270 271 270 271 272 272 272 275 278 280 282 283 285 286 287 288 288 289 289 290 290 289 291 292
257 258 259 260 262 262 263 264 264 264 266 266 266 267 268 269 269 269 268 270 271 271 272 273 275 275 275 277 280 282 281 283 285 286 287 287 287 288 288 288 288 289 290
258 259 259 261 261 262 263 264 264 265 266 267 267 267 267 269 269 269 268 269 270 272 273 275 275 275 276 278 279 280 281 281 283 284 285 286 287 287 287 287 287 287 288
260 261 262 262 263 263 264 265 266 266 267 268 268 268 267 268 268 268 268 268 270 271 273 274 274 275 275 277 278 281 281 280 281 282 284 284 285 285 285 285 286 286 287
260 262 263 266 268 267 267 268 269 268 269 270 270 269 267 267 267 267 268 268 268 269 272 273 273 273 275 276 278 280 282 282 282 282 283 283 284 285 284 283 283 284 286
265 267 267 267 270 271 271 272 273 271 271 271 270 271 269 267 266 267 267 267 267 268 270 272 273 274 275 276 278 279 280 281 283 284 284 284 284 284 283 282 282 282 283
266 268 269 270 271 273 273 274 275 275 275 274 274 273 272 271 268 267 266 267 268 268 270 272 274 275 276 277 277 279 280 281 283 284 285 285 285 285 285 283 283 283 282
266 267 268 269 270 272 273 274 275 276 276 276 274 273 273 272 272 270 267 266 268 269 271 272 274 276 276 276 277 278 280 281 282 284 284 285 286 285 285 283 282 281 282
268 268 268 268 269 270 271 274 275 276 276 276 274 273 272 272 271 271 271 269 269 270 271 273 275 275 275 275 276 278 279 280 282 283 284 284 285 285 284 283 282 281 282
268 270 270 269 270 270 271 274 274 275 275 275 275 274 272 270 270 271 271 271 270 271 271 272 274 274 274 275 277 278 279 280 281 282 283 284 285 285 284 283 284 283 283
272 271 271 271 271 271 273 274 275 275 275 275 276 275 273 271 271 271 271 270 270 271 272 273 273 274 275 276 276 277 277 278 280 282 283 284 284 284 285 285 285 285 283
273 272 272 272 273 274 275 276 276 276 276 276 277 277 275 274 273 272 271 272 271 271 272 273 274 275 276 276 277 277 277 278 280 281 282 284 285 284 284 284 284 284 282
272 273 272 273 274 274 275 276 276 276 277 276 276 276 276 275 274 274 274 273 273 273 274 275 276 277 277 277 277 277 278 278 279 281 282 282 283 284 284 284 285 284 282
272 272 272 274 274 275 275 276 276 276 276 276 276 276 277 277 276 275 274 273 273 274 275 275 277 278 277 277 277 278 278 279 280 281 281 281 282 283 284 284 284 284 283
272 272 273 273 273 274 275 275 275 276 276 276 276 276 276 276 276 275 274 273 274 274 275 276 276 277 277 277 279 279 279 279 280 281 281 280 281 282 283 283 283 283 282
274 273 273 273 273 273 274 275 275 275 276 276 276 276 276 276 276 275 274 274 274 274 274 275 276 276 277 278 279 279 280 280 281 281 281 281 281 281 282 282 282 281 282
274 274 274 274 274 273 274 274 275 275 275 275 275 276 276 276 276 275 275 274 273 273 274 275 276 276 277 278 278 279 280 281 282 282 283 283 282 281 281 281 281 281 281
273 274 274 274 274 273 273 274 274 274 274 274 275 276 276 276 276 276 275 274 274 274 275 275 276 276 276 277 278 279 280 280 282 283 283 283 284 283 282 280 280 280 280
274 273 273 274 274 273 273 273 273 273 273 273 274 275 275 276 276 276 275 275 275 275 275 275 275 276 276 277 277 279 279 280 281 282 282 283 284 284 283 282 281 280 281
274 274 274 273 273 273 272 271 271 271 271 271 272 272 274 275 275 276 276 276 276 275 275 275 275 275 276 276 277 277 279 280 281 281 281 282 283 284 284 283 282 281 282
274 274 274 273 273 272 272 271 271 271 270 270 271 271 272 273 274 274 275 275 276 276 275 275 275 276 277 277 278 278 278 279 280 281 282 281 281 283 283 282 282 282 282
273 273 274 273 273 272 271 270 270 270 270 270 270 270 270 271 272 273 274 274 274 274 274 274 274 275 276 277 278 277 278 278 279 280 281 281 281 282 282 281 282 282 282
274 273 273 273 271 271 270 270 270 270 269 269 269 269 270 270 271 272 272 272 273 273 273 273 274 275 276 276 277 277 278 278 279 280 281 282 282 282 282 282 282 283 283
Height
5806 5807 5808 5809 5810 5811 5812 5813 5813 5814 5815 5815 5815 5816 5816 5817 5818 5819 5820 5821 5821 5821 5822 5822 5822 5822 5822 5821 5821 5820 5820 5819 5818 5817 5816 5815 5814 5812 5811 5810 5808 5807 5805
5799 5800 5801 5802 5803 5804 5804 5805 5806 5807 5807 5808 5809 5809 5810 5810 5811 5812 5813 5814 5814 5815 5815 5815 5815 5815 5815 5815 5814 5814 5813 5813 5812 5811 5810 5809 5807 5806 5804 5803 5802 5800 5798
5791 5792 5793 5794 5795 5796 5797 5797 5798 5799 5800 5801 5801 5802 5802 5803 5804 5805 5805 5806 5807 5807 5808 5808 5808 5808 5808 5808 5807 5807 5807 5806 5805 5804 5803 5802 5800 5799 5797 5796 5795 5793 5791
5783 5784 5785 5786 5787 5787 5788 5789 5790 5791 5792 5793 5794 5794 5795 5796 5796 5797 5798 5798 5799 5800 5800 5801 5801 5801 5801 5800 5800 5800 5799 5799 5798 5796 5795 5794 5793 5791 5790 5788 5787 5785 5784
5775 5776 5777 5778 5779 5780 5780 5781 5782 5783 5784 5784 5785 5786 5787 5788 5788 5789 5790 5791 5791 5792 5793 5793 5793 5793 5793 5793 5793 5792 5791 5790 5789 5788 5787 5786 5784 5783 5782 5780 5779 5777 5775
5767 5768 5769 5770 5771 5771 5772 5773 5774 5775 5775 5776 5777 5777 5778 5779 5780 5781 5782 5783 5783 5784 5785 5785 5785 5785 5785 5784 5784 5783 5782 5781 5781 5780 5778 5777 5776 5775 5773 5772 5770 5769 5767
5759 5760 5761 5762 5763 5764 5764 5765 5766 5766 5767 5767 5768 5769 5770 5770 5771 5772 5773 5775 5775 5776 5776 5777 5777 5776 5776 5776 5775 5774 5773 5772 5771 5770 5770 5768 5767 5766 5765 5763 5762 5760 5758
5752 5753 5753 5754 5755 5756 5756 5757 5757 5758 5759 5759 5759 5759 5760 5762 5762 5763 5764 5765 5766 5767 5767 5767 5767 5767 5767 5766 5766 5765 5764 5763 5762 5761 5761 5759 5758 5756 5755 5753 5752 5751 5749
5746 5746 5746 5746 5747 5748 5748 5749 5749 5750 5750 5750 5750 5750 5751 5753 5754 5755 5755 5755 5756 5757 5758 5758 5758 5758 5758 5757 5756 5756 5755 5754 5753 5752 5751 5749 5748 5747 5745 5744 5742 5740 5739
5738 5739 5739 5739 5739 5740 5740 5741 5741 5741 5741 5741 5741 5741 5742 5743 5744 5746 5746 5746 5747 5748 5749 5749 5749 5748 5748 5748 5747 5746 5746 5745 5744 5742 5741 5739 5738 5736 5735 5733 5732 5730 5728
5731 5732 5732 5732 5732 5732 5733 5733 5733 5733 5732 5732 5732 5732 5732 5733 5734 5735 5737 5738 5738 5739 5739 5739 5739 5739 5739 5738 5738 5737 5736 5735 5734 5733 5731 5729 5728 5726 5724 5722 5721 5720 5718
5724 5724 5724 5724 5725 5725 5725 5725 5725 5724 5723 5723 5723 5723 5723 5724 5725 5725 5727 5729 5729 5730 5730 5729 5729 5729 5729 5728 5728 5727 5726 5725 5724 5723 5721 5719 5717 5715 5713 5711 5710 5709 5708
5716 5716 5716 5716 5716 5716 5716 5716 5716 5715 5715 5715 5714 5714 5714 5715 5715 5716 5717 5718 5720 5721 5721 5720 5719 5719 5718 5717 5717 5716 5716 5715 5714 5712 5711 5709 5707 5705 5702 5701 5699 5698 5697
5708 5708 5708 5708 5708 5708 5708 5708 5707 5707 5706 5706 5705 5705 5705 5706 5706 5706 5707 5708 5709 5711 5711 5710 5709 5708 5708 5707 5706 5705 5705 5704 5703 5701 5700 5698 5696 5694 5692 5690 5689 5687 5686
5700 5700 5699 5699 5699 5699 5699 5699 5699 5698 5697 5697 5697 5697 5697 5697 5697 5697 5697 5698 5699 5700 5701 5700 5699 5698 5696 5696 5695 5694 5694 5693 5692 5690 5689 5687 5686 5684 5682 5680 5678 5677 5675
5691 5691 5691 5691 5691 5691 5690 5690 5690 5689 5689 5689 5688 5688 5688 5687 5687 5687 5688 5688 5688 5689 5690 5690 5688 5687 5686 5685 5684 5683 5683 5682 5681 5679 5678 5677 5675 5673 5672 5670 5668 5666 5665
5681 5681 5681 5681 5681 5681 5681 5681 5681 5680 5680 5679 5679 5679 5678 5678 5678 5677 5677 5678 5678 5678 5679 5679 5677 5676 5675 5674 5673 5672 5672 5671 5670 5668 5667 5666 5664 5663 5661 5660 5658 5656 5655
5671 5671 5671 5671 5671 5671 5670 5670 5670 5670 5670 5670 5669 5669 5669 5668 5668 5668 5667 5667 5668 5668 5668 5668 5667 5666 5665 5664 5663 5662 5661 5660 5659 5658 5656 5655 5653 5652 5651 5649 5648 5646 5645
5659 5659 5659 5659 5659 5660 5660 5660 5659 5659 5659 5659 5659 5659 5659 5658 5658 5657 5657 5657 5657 5657 5657 5657 5656 5655 5655 5654 5653 5652 5651 5650 5648 5647 5646 5644 5642 5641 5640 5639 5637 5636 5635
5648 5647 5647 5647 5647 5648 5648 5648 5648 5648 5648 5648 5648 5648 5648 5648 5647 5647 5646 5646 5646 5646 5646 5646 5645 5645 5644 5643 5642 5642 5641 5639 5638 5637 5635 5633 5632 5630 5629 5628 5626 5625 5624
5636 5636 5635 5635 5635 5636 5636 5636 5636 5637 5637 5637 5637 5637 5637 5637 5636 5636 5635 5635 5635 5635 5635 5635 5634 5634 5633 5632 5632 5631 5631 5629 5628 5626 5624 5622 5621 5619 5618 5616 5615 5614 5613
5624 5623 5623 5623 5623 5623 5623 5624 5624 5624 5625 5625 5625 5626 5625 5625 5625 5625 5624 5624 5624 5624 5623 5623 5623 5623 5622 5621 5621 5620 5619 5618 5617 5616 5614 5612 5610 5608 5607 5605 5604 5603 5601
5611 5611 5610 5610 5610 5610 5610 5611 5611 5612 5612 5613 5613 5613 5614 5614 5613 5613 5613 5612 5612 5612 5612 5612 5612 5611 5610 5610 5609 5609 5608 5606 5605 5604 5602 5602 5599 5598 5596 5594 5593 5591 5590
5597 5597 5597 5597 5597 5597 5597 5597 5598 5599 5599 5600 5601 5601 5601 5601 5601 5601 5601 5601 5601 5600 5600 5600 5600 5600 5599 5598 5597 5597 5596 5595 5594 5592 5590 5590 5589 5587 5585 5583 5581 5580 5578
5583 5583 5583 5583 5583 5583 5583 5584 5584 5585 5586 5587 5588 5588 5589 5589 5589 5589 5589 5589 5589 5589 5588 5588 5588 5588 5587 5586 5585 5584 5583 5582 5582 5581 5579 5578 5577 5575 5574 5573 5570 5568 5566
5568 5568 5569 5569 5569 5569 5569 5569 5570 5571 5572 5573 5574 5575 5575 5576 5576 5576 5576 5577 5577 5577 5576 5576 5576 5575 5575 5574 5572 5572 5571 5570 5569 5569 5567 5566 5564 5562 5562 5562 5559 5556 5554